Hourly Data Report for April 14, 2017

CLYDE RIVER A
NUNAVUT

70°29'09.000" N
68°31'01.000" W
26.50 m
2400804
71090
YCY

Download Data

Hourly Data (April 2017)
Hourly Data Report for April 14, 2017
TIME
LST
Temp Definition
°C
Dew Point Definition
°C
Rel Hum Definition
%
Precip. Amount Definition
mm

Wind Dir Definition
10's deg

Wind Spd Definition
km/h
Visibility Definition
km
Stn Press Definition
kPa
Hmdx Definition


Wind Chill Definition


Weather Definition


00:00 -13.0 -14.5 89 0.0 2 13 4.0 101.32   -20 Snow
01:00 -12.7 -14.1 89 0.0 2 13 2.8 101.34   -20 Snow
02:00 -13.6 -15.0 89 0.0 36 9 6.4 101.37   -19 Snow
03:00 -13.8 -15.3 89 0.0 1 13 12.9 101.40   -21 Snow
04:00 -13.8 -15.2 89 0.0 35 15 4.8 101.42   -21 Snow
05:00 -14.2 -15.7 88 0.0 1 13 4.8 101.48   -21 Snow
06:00 -15.5 -17.1 88 0.0 35 13 11.3 101.52   -23 Snow
07:00 -16.9 -18.9 85 0.0 35 17 16.1 101.56   -26 Snow
08:00 -15.7 -17.6 86 0.0 34 18 8.1 101.60   -25 Snow
09:00 -14.7 -16.7 85 0.0 33 24 4.8 101.59   -25 Snow
10:00 -13.8 -16.1 83 0.0 32 28 3.2 101.57   -24 Snow
11:00 -13.9 -16.0 85 0.0 34 32 1.2 101.57   -25 Snow
12:00 -13.7 -15.7 85 0.0 33 39 0.6 101.54   -26 Moderate Snow
13:00 -13.2 -15.0 87 0.0 33 37 0.8 101.56   -25 Moderate Snow
14:00 -12.8 -14.5 87 0.0 33 39 1.0 101.57   -24 Snow
15:00 -12.7 -14.4 87 0.0 34 39 0.6 101.58   -24 Moderate Snow,Blowing Snow
16:00 -12.8 -14.4 88 0.0 33 41 0.8 101.61   -25 Moderate Snow,Blowing Snow
17:00 -12.7 -14.3 88 0.0 33 39 1.2 101.64   -24 Snow
18:00 -13.1 -14.7 88 0.0 33 39 1.0 101.66   -25 Snow
19:00 -12.9 -14.4 89 0.0 34 32 2.0 101.71   -24 Snow
20:00 -12.7 -14.2 89 0.0 35 30 3.2 101.75   -23 Snow
21:00 -13.2 -14.8 88 0.0 34 30 2.4 101.77   -24 Snow
22:00 -13.3 -14.8 89 0.0 35 26 1.6 101.78   -23 Snow
23:00 -13.6 -15.2 88 0.0 35 22 2.8 101.82   -23 Snow

Notes on Data Quality.

Legend

  • E = Estimated
  • M = Missing
  • NA = Not Available*
  • [empty] = Indicates an unobserved value
Date modified: